Time,TemperatureF,DewpointF,PressureIn,WindDirection,WindDirectionDegrees,WindSpeedMPH,WindSpeedGustMPH,Humidity,HourlyPrecipIn,Conditions,Clouds,dailyrainin,SoftwareType,DateUTC
2013-11-02 00:00:00,46.7,44.5,29.63,SW,219,0.0,1.0,92,0.00,,,0.00,Wunderground v.1.15,2013-11-02 04:00:00,
2013-11-02 00:05:00,46.6,44.7,29.62,SW,219,0.0,1.0,93,0.00,,,0.00,Wunderground v.1.15,2013-11-02 04:05:00,
2013-11-02 08:55:00,45.0,43.4,29.62,SW,222,0.0,0.0,94,0.00,,,0.04,Wunderground v.1.15,2013-11-02 12:55:00,
2013-11-02 09:00:00,45.0,43.4,29.63,SW,222,0.0,0.0,94,0.00,,,0.04,Wunderground v.1.15,2013-11-02 13:00:00,
2013-11-02 09:05:00,45.1,43.5,29.63,SW,222,0.0,0.0,94,0.00,,,0.04,Wunderground v.1.15,2013-11-02 13:05:00,
2013-11-02 09:10:00,45.2,43.6,29.63,SW,222,0.0,0.0,94,0.00,,,0.04,Wunderground v.1.15,2013-11-02 13:10:00,
2013-11-02 09:15:00,45.3,43.7,29.63,SW,222,0.0,0.0,94,0.00,,,0.04,Wunderground v.1.15,2013-11-02 13:15:00,
2013-11-02 09:20:00,45.5,43.9,29.63,SW,222,0.0,0.0,94,0.00,,,0.04,Wunderground v.1.15,2013-11-02 13:20:00,
2013-11-02 09:24:00,45.6,44.0,29.63,SW,222,0.0,0.0,94,0.00,,,0.04,Wunderground v.1.15,2013-11-02 13:24:00,
2013-11-02 09:30:00,45.8,44.2,29.63,SW,222,0.0,0.0,94,0.00,,,0.04,Wunderground v.1.15,2013-11-02 13:30:00,
2013-11-02 09:35:00,46.0,44.4,29.63,SW,223,0.0,0.0,94,0.00,,,0.04,Wunderground v.1.15,2013-11-02 13:35:00,
2013-11-02 09:40:00,46.1,44.2,29.63,SW,234,0.0,0.0,93,0.00,,,0.04,Wunderground v.1.15,2013-11-02 13:40:00,
2013-11-02 09:45:00,46.4,44.8,29.62,SW,234,0.0,0.0,94,0.00,,,0.04,Wunderground v.1.15,2013-11-02 13:45:00,
2013-11-02 09:50:00,46.6,44.7,29.62,SW,234,0.0,0.0,93,0.00,,,0.04,Wunderground v.1.15,2013-11-02 13:50:00,
2013-11-02 09:55:00,46.7,44.8,29.62,SW,236,1.0,1.0,93,0.00,,,0.04,Wunderground v.1.15,2013-11-02 13:55:00,
2013-11-02 10:00:00,46.8,44.6,29.62,WSW,238,1.0,1.0,92,0.00,,,0.04,Wunderground v.1.15,2013-11-02 14:00:00,
2013-11-02 10:10:00,47.1,44.6,29.62,WSW,240,0.0,0.0,91,0.00,,,0.04,Wunderground v.1.15,2013-11-02 14:10:00,
2013-11-02 10:15:00,47.4,44.9,29.62,WSW,241,0.0,0.0,91,0.00,,,0.04,Wunderground v.1.15,2013-11-02 14:15:00,
2013-11-02 10:20:00,47.6,44.8,29.62,WSW,241,0.0,0.0,90,0.00,,,0.04,Wunderground v.1.15,2013-11-02 14:20:00,
2013-11-02 10:25:00,47.8,45.0,29.62,WSW,241,0.0,0.0,90,0.00,,,0.04,Wunderground v.1.15,2013-11-02 14:25:00,
2013-11-02 10:30:00,47.8,44.7,29.62,WSW,241,0.0,0.0,89,0.00,,,0.04,Wunderground v.1.15,2013-11-02 14:30:00,
2013-11-02 10:35:00,47.8,44.7,29.63,WSW,241,0.0,0.0,89,0.00,,,0.04,Wunderground v.1.15,2013-11-02 14:35:00,
2013-11-02 10:40:00,47.8,44.4,29.63,WSW,241,0.0,0.0,88,0.00,,,0.04,Wunderground v.1.15,2013-11-02 14:40:00,
2013-11-02 10:50:00,48.1,44.7,29.63,WSW,241,0.0,0.0,88,0.00,,,0.04,Wunderground v.1.15,2013-11-02 14:50:00,
2013-11-02 21:05:00,37.4,35.6,29.91,North,5,4.0,4.0,93,0.00,,,0.27,Wunderground v.1.15,2013-11-03 01:05:00,
2013-11-02 21:15:00,37.3,35.7,29.92,North,10,3.0,4.0,94,0.00,,,0.27,Wunderground v.1.15,2013-11-03 01:15:00,
2013-11-02 21:20:00,37.2,35.6,29.92,North,355,3.0,3.0,94,0.00,,,0.27,Wunderground v.1.15,2013-11-03 01:20:00,
2013-11-02 21:30:00,37.1,35.5,29.92,North,355,2.0,5.0,94,0.00,,,0.27,Wunderground v.1.15,2013-11-03 01:30:00,
2013-11-02 21:35:00,37.1,35.3,29.92,North,355,3.0,5.0,93,0.00,,,0.27,Wunderground v.1.15,2013-11-03 01:35:00,
2013-11-02 21:40:00,37.0,35.2,29.92,North,355,3.0,3.0,93,0.00,,,0.27,Wunderground v.1.15,2013-11-03 01:40:00,
2013-11-02 21:50:00,37.0,35.2,29.93,NNW,347,2.0,3.0,93,0.00,,,0.28,Wunderground v.1.15,2013-11-03 01:50:00,
2013-11-02 21:55:00,36.8,35.0,29.93,North,355,3.0,3.0,93,0.00,,,0.28,Wunderground v.1.15,2013-11-03 01:55:00,
2013-11-02 22:00:00,36.7,34.9,29.93,NNW,345,3.0,3.0,93,0.00,,,0.28,Wunderground v.1.15,2013-11-03 02:00:00,
2013-11-02 22:10:00,36.6,34.8,29.94,NNW,348,3.0,3.0,93,0.00,,,0.28,Wunderground v.1.15,2013-11-03 02:10:00,
2013-11-02 22:15:00,36.6,34.8,29.94,North,351,3.0,12.0,93,0.00,,,0.28,Wunderground v.1.15,2013-11-03 02:15:00,
2013-11-02 22:20:00,36.5,34.7,29.95,NNW,348,2.0,12.0,93,0.00,,,0.28,Wunderground v.1.15,2013-11-03 02:20:00,
2013-11-02 22:25:00,36.5,34.7,29.95,North,350,2.0,12.0,93,0.00,,,0.28,Wunderground v.1.15,2013-11-03 02:25:00,
2013-11-02 22:35:00,36.4,34.3,29.95,North,355,3.0,12.0,92,0.00,,,0.28,Wunderground v.1.15,2013-11-03 02:35:00,
2013-11-02 22:45:00,36.4,34.3,29.96,North,349,2.0,12.0,92,0.00,,,0.28,Wunderground v.1.15,2013-11-03 02:45:00,
2013-11-02 22:50:00,36.4,34.3,29.96,North,360,2.0,12.0,92,0.00,,,0.28,Wunderground v.1.15,2013-11-03 02:50:00,
2013-11-02 22:55:00,36.4,34.3,29.96,North,349,2.0,12.0,92,0.00,,,0.28,Wunderground v.1.15,2013-11-03 02:55:00,
2013-11-02 23:05:00,36.4,34.0,29.96,North,351,2.0,12.0,91,0.00,,,0.28,Wunderground v.1.15,2013-11-03 03:05:00,
2013-11-02 23:10:00,36.4,34.0,29.97,North,360,2.0,12.0,91,0.00,,,0.28,Wunderground v.1.15,2013-11-03 03:10:00,
2013-11-02 23:15:00,36.4,33.7,29.97,NNW,338,3.0,12.0,90,0.00,,,0.28,Wunderground v.1.15,2013-11-03 03:15:00,
2013-11-02 23:25:00,36.5,33.8,29.97,NNE,17,3.0,12.0,90,0.00,,,0.28,Wunderground v.1.15,2013-11-03 03:25:00,
2013-11-02 23:30:00,36.5,33.6,29.97,North,355,2.0,2.0,89,0.00,,,0.28,Wunderground v.1.15,2013-11-03 03:30:00,
2013-11-02 23:35:00,36.5,33.6,29.97,North,355,1.0,12.0,89,0.00,,,0.28,Wunderground v.1.15,2013-11-03 03:35:00,
2013-11-02 23:40:00,36.5,33.6,29.97,North,355,2.0,12.0,89,0.00,,,0.28,Wunderground v.1.15,2013-11-03 03:40:00,
2013-11-02 23:45:00,36.6,33.7,29.97,North,350,1.0,12.0,89,0.00,,,0.28,Wunderground v.1.15,2013-11-03 03:45:00,
2013-11-02 23:50:00,36.6,33.7,29.97,North,355,1.0,12.0,89,0.00,,,0.28,Wunderground v.1.15,2013-11-03 03:50:00,
2013-11-02 23:55:00,36.6,33.4,29.98,North,355,2.0,12.0,88,0.00,,,0.28,Wunderground v.1.15,2013-11-03 03:55:00,